Location: Newark
(43.9494°N, 6.8108°E)
Time: 19:33:55
(UTC+00:00)

Transit 2A Rocket - Pass Details

Date: 25 October 2019
Orbit: 594 x 909 km, 66.7° (Epoch: 17 November)

Event Time Altitude Azimuth Distance (km) Brightness Sun altitude
Exits shadow 05:06:54 12° 292° (WNW) 1,958 6.5 -10.1°
Maximum altitude 05:08:54 15° 320° (NW) 1,747 6.4 -9.7°
Drops below altitude 10° 05:11:39 10° 356° (N) 2,039 7.1 -9.2°
Sets 05:14:46 0° 20° (NNE) 2,905 8.2 -8.7°
